{"data":{"norad_id":48789,"intl_designator":"2021-045Y","name":"ONEWEB-0221","alt_names":[],"object_type":"PAYLOAD","status":"ACTIVE","operator":null,"country":"UK","launch_date":"2021-05-28","launch_site_code":"VOSTO","launch_vehicle":null,"mission":null,"orbit_class":"UNKNOWN","rcs_meters":null,"size_class":null,"mass_kg":null,"dimensions":null,"purposes":["comms"],"wikipedia_slug":null,"has_3d_model":false,"image_url":null,"decayed_at":null,"tle_current":{"epoch":"2026-05-25T01:06:55.078848Z","epoch_age_seconds":64991,"freshness":"FRESH","line1":"1 48789U 21045Y   26145.04647082 -.00000159  00000+0 -45580-3 0  9998","line2":"2 48789  87.8999 263.7993 0001718  97.1824 262.9502 13.15546631241339","mean_motion":13.15546631,"eccentricity":0.0001718,"inclination_deg":87.8999,"raan_deg":263.7993,"arg_perigee_deg":97.1824,"mean_anomaly_deg":262.9502,"bstar":-0.0004558,"rev_number":24133,"period_min":109.46020202305,"perigee_km":1200.4759092931,"apogee_km":1203.0803681348,"semimajor_km":7579.915138714,"source":"CELESTRAK","updated_at":"2026-05-25T13:38:22.446091Z"}}}